Simultaneous Nadir Overpasses (SNOs) Predictions

Prediction of SNOs between GOES-15 and FY3D Satellite Orbit:

Table of predicted SNOs for the next 14.0 days since TLE Epoch: 7/14/2024
Index Date Time (GOES-15) GOES-15 Lat,Lon FY3D Lat,Lon Distance(km) Time Diff (sec)
1 07/14/2024 10:41:13 0.36, 61.13 -0.39, 57.89 369.46 80
2 07/15/2024 10:25:19 0.35, 61.13 0.67, 62.39 144.28 80
3 07/16/2024 22:44:42 -0.37, 61.18 0.57, 57.10 465.72 80
4 07/17/2024 22:28:49 -0.37, 61.18 -0.49, 61.59 47.22 80
5 07/20/2024 10:29:46 0.39, 61.16 0.28, 60.77 45.23 80
6 07/21/2024 10:13:52 0.38, 61.17 1.34, 65.26 467.47 80
7 07/22/2024 22:35:56 -0.40, 61.23 -0.12, 59.97 143.28 80
8 07/23/2024 22:17:21 -0.39, 61.24 -1.13, 64.48 369.02 80
9 07/25/2024 10:36:52
